Hamilton Island, Australia

12:34 PM AEST on October 18, 2017 (GMT +1000)
Hamilton Island

Weather History for YBHM - October, 2011

Change the Weather History Date:

Thursday, October 27, 2011

  Actual Average Record
Temperature  
Mean Temperature 75 °F -  
Max Temperature 79 °F - - ()
Min Temperature 71 °F - - ()
Cooling Degree Days 10    
Growing Degree Days 25 (Base 50)    
Moisture  
Dew Point 68 °F    
Average Humidity 76    
Maximum Humidity 88    
Minimum Humidity 62    
Precipitation  
Precipitation 0.00 in - - ()
Sea Level Pressure  
Sea Level Pressure 29.94 in    
Wind  
Wind Speed 8 mph ()    
Max Wind Speed 17 mph    
Max Gust Speed -    
T = Trace of Precipitation, MM = Missing Value Source: Averaged Metar Reports

Daily Weather History Graph

Daily Weather History Graph

Search for Another Location

Airport or City:

Trip Planner

Search our weather history database for the weather conditions in past years. The results will help you decide how hot, cold, wet, or windy it might be!

Date:

Astronomy

Oct. 27, 2011 Rise Set
Actual Time 5:25 AM AEST 6:10 PM AEST
Civil Twilight 5:02 AM AEST 6:33 PM AEST
Nautical Twilight 4:36 AM AEST 7:00 PM AEST
Astronomical Twilight 4:08 AM AEST 7:27 PM AEST
Moon 5:18 AM AEST (10/27) 6:39 PM AEST (10/27)
Length of Visible Light 13h 30m
Length of Day
12h 45m
New Moon, 0% of the Moon is Illuminated
Oct 27
New Moon
Nov 3
First Quarter
Nov 11
Full
Nov 19
Last Quarter
Nov 25
New

Hourly Weather History & Observations

Time (AEST) Temp. Dew Point Humidity Pressure Visibility Wind Dir Wind Speed Gust Speed Precip Events Conditions
12:00 AM 73 °F 68 °F 80% 29.93 in - NE 4.6 mph - -  
12:00 AM 73.4 °F 68.0 °F 83% 29.92 in - NE 4.6 mph - N/A   Unknown
1:00 AM 73.4 °F 68.0 °F 83% 29.92 in - NNW 1.2 mph - N/A   Unknown
3:00 AM 72 °F 68 °F 84% 29.90 in - South 3.5 mph - -  
3:00 AM 71.6 °F 68.0 °F 88% 29.89 in - South 2.3 mph - N/A   Unknown
4:00 AM 71.6 °F 68.0 °F 88% 29.89 in - NNE 3.5 mph - N/A   Unknown
5:00 AM 71.6 °F 68.0 °F 88% 29.92 in - East 4.6 mph - N/A   Unknown
6:00 AM 72 °F 69 °F 85% 29.93 in - East 5.8 mph - -  
6:00 AM 71.6 °F 68.0 °F 88% 29.92 in - East 5.8 mph - N/A   Unknown
7:00 AM 73.4 °F 69.8 °F 88% 29.95 in - East 3.5 mph - N/A   Unknown
8:00 AM 75.2 °F 69.8 °F 83% 29.98 in - East 12.7 mph - N/A   Unknown
9:00 AM 78 °F 68 °F 64% 29.99 in - East 13.8 mph - -  
9:00 AM 78.8 °F 68.0 °F 69% 29.98 in - East 13.8 mph - N/A   Unknown
10:00 AM 78.8 °F 68.0 °F 69% 29.98 in - East 13.8 mph - N/A   Unknown
11:00 AM 78.8 °F 66.2 °F 65% 29.98 in - East 17.3 mph - N/A   Unknown
12:00 PM 79 °F 68 °F 62% 29.97 in - East 16.1 mph - -  
12:00 PM 78.8 °F 68.0 °F 69% 29.95 in - East 16.1 mph - N/A   Unknown
1:00 PM 78.8 °F 68.0 °F 69% 29.95 in - East 15.0 mph - N/A   Unknown
2:00 PM 78.8 °F 68.0 °F 69% 29.92 in - East 15.0 mph - N/A   Unknown
3:00 PM 78 °F 67 °F 62% 29.92 in - East 15.0 mph - -  
3:00 PM 78.8 °F 68.0 °F 69% 29.92 in - East 15.0 mph - N/A   Unknown
4:00 PM 77.0 °F 68.0 °F 74% 29.92 in - East 13.8 mph - N/A   Unknown
5:00 PM 77.0 °F 66.2 °F 69% 29.92 in - East 13.8 mph - N/A   Unknown
6:00 PM 75 °F 67 °F 69% 29.93 in - East 11.5 mph - -  
6:00 PM 75.2 °F 66.2 °F 73% 29.92 in - East 11.5 mph - N/A   Unknown
7:00 PM 75.2 °F 66.2 °F 73% 29.95 in - ENE 10.4 mph - N/A   Unknown
8:00 PM 75.2 °F 68.0 °F 78% 29.95 in - ENE 9.2 mph - N/A   Unknown
9:00 PM 74 °F 67 °F 73% 29.97 in - ENE 10.4 mph - -  
9:00 PM 75.2 °F 66.2 °F 73% 29.98 in - ENE 10.4 mph - N/A   Unknown
10:00 PM 73.4 °F 68.0 °F 83% 29.98 in - ENE 9.2 mph - N/A   Unknown
11:00 PM 73.4 °F 68.0 °F 83% 29.98 in - East 11.5 mph - N/A   Unknown